Regional Weather Roundup
Issued by NWS Tiyan, Guam

Home | Current Version | Previous Version | Text Only | Print | Product List | Glossary On
Versions: 1 2 3 4 5 6 7 8 9 10 11 12 13 14 15 16 17 18 19 20 21 22 23 24 25 26 27
000
ASGM40 PGUM 210612
RWRGUM
WEATHER ROUNDUP FOR THE MARIANAS
NATIONAL WEATHER SERVICE TIYAN GU
400 PM CHST TUE NOV 21 2017

GUZ001>004-210700-
MARIANA ISLANDS-

CITY           SKY/WX    TMP DP  RH WIND       PRES   REMARKS
GUAM AIRPORT   SUNNY     88  75  66 E12       29.78F HX  97
ANDERSEN AFB   MOSUNNY   84  73  70 NE12      29.80S HX  91
ROTA AIRPORT   MOSUNNY   82  75  78 NE13      29.79S
TINIAN AP      PTSUNNY   82  75  78 NE17      29.76F
SAIPAN AP      MOSUNNY   84  75  74 NE16      29.79S HX  92

$$





USA.gov is the U.S. government's official web portal to all federal, state and local government web resources and services.